sat.trackr.live / text

‹ back to catalog

STARLINK-31676

NORAD 59900 · 2024-100R

PAYLOAD ACTIVE UNKNOWN

§ Identity

Operator
Country
US
Launch date
2024-05-28
Launch site
AFETR
Launch vehicle
Mass (kg)
RCS (m²)

Purposes: comms

External: N2YO · Heavens-Above · Gunter

§ Orbital elements

Epoch: 2026-05-25T04:14:45.650400Z

Period
94.27 min
Inclination
43.0007°
Eccentricity
0.0000842
Mean motion
15.27581666 rev/d
Perigee alt
482.5 km
Apogee alt
483.6 km
Semi-major
6,861.2 km
B*
2.2999e-5
RAAN
53.5221°
Arg perigee
264.0532°
Mean anomaly
96.0224°
Rev number
11,274

§ Raw data

STARLINK-316761 59900U 24100R   26145.17691725  .00000371  00000+0  22999-4 0  99912 59900  43.0007  53.5221 0000842 264.0532  96.0224 15.27581666112748

JSON: /api/v1/satellites/59900 · /tle

For live sub-satellite position, see the globe view (requires WebGL).

§ Visibility from observer

Set your observer location to see the next 7 days of passes ≥ 10°. The values pass through the URL so the page stays shareable.

No JS? Fill the form by hand. The geolocation button needs JavaScript.